RH
64 42 6 7 8 25 84 93 99 100 95 100 97 100 97 94 96 54 25 12 8 8 8 8 7 6 5 5 5 4 4 4 4 4 4 6 7 11 16 18 17 20 20 22 26 30 33 41 47 51 56 54 57 61
54 17 5 7 39 85 100 99 100 99 97 98 98 98 99 98 92 52 24 14 11 9 11 15 11 7 6 6 5 6 5 5 5 4 4 4 5 5 8 10 11 16 16 20 22 26 31 38 45 46 54 58 57 55
31 6 5 17 71 95 100 100 97 100 98 99 98 98 97 98 89 44 22 19 14 12 13 21 15 10 8 7 6 6 6 6 6 6 6 6 6 6 6 6 6 7 7 11 20 36 38 48 58 64 65 64 65 70
15 3 5 28 75 98 98 100 97 98 99 98 99 97 95 98 83 37 24 30 23 20 18 22 19 12 10 8 7 7 7 7 7 8 8 8 8 9 9 8 8 8 8 8 7 10 8 14 19 27 37 48 59 64
6 3 6 52 87 100 99 93 98 94 97 99 99 98 94 98 74 34 30 41 37 36 54 46 23 18 12 11 9 8 8 9 9 10 10 10 11 12 12 12 12 13 14 13 13 13 10 9 7 8 9 10 11 19
3 5 18 70 100 99 94 97 98 94 97 98 97 97 94 97 61 36 45 61 51 67 65 57 36 26 17 11 12 10 10 10 11 12 13 14 15 15 16 16 17 19 20 21 22 23 22 22 23 23 22 21 18 16
2 15 91 97 97 97 95 100 98 97 98 99 97 97 99 93 46 71 74 60 79 77 56 44 44 46 29 13 14 15 13 13 14 15 17 19 20 21 22 22 23 24 26 30 32 34 34 35 31 30 29 29 30 30
6 30 88 93 94 99 100 100 100 99 96 94 96 96 98 95 95 78 77 68 60 59 56 50 52 49 42 23 20 18 17 17 17 19 22 25 28 29 28 28 28 28 30 33 36 38 42 44 48 49 53 58 60 60
11 26 64 94 97 100 100 98 98 95 98 95 98 97 97 97 97 88 63 57 52 41 51 55 58 51 47 34 24 24 21 23 24 26 29 32 37 35 32 32 32 31 30 31 30 27 29 30 33 37 47 49 57 64
5 8 56 89 100 100 99 94 95 92 97 97 98 99 89 95 96 80 54 57 52 45 42 55 55 42 48 34 32 35 32 30 33 32 35 40 41 35 33 30 27 25 24 23 23 22 24 24 28 31 36 39 46 51
6 53 90 100 100 100 98 89 86 98 95 94 97 98 99 100 97 97 83 65 54 52 56 56 60 54 50 46 40 43 48 43 40 42 44 42 35 34 28 20 19 18 17 17 15 15 18 22 26 33 42 45 54 58
6 52 96 92 97 98 91 88 92 98 100 100 99 97 99 98 95 92 93 82 58 57 60 60 61 58 50 49 54 65 65 61 54 51 46 39 34 26 20 18 16 15 15 14 14 15 17 21 24 28 35 40 45 45
24 72 72 86 99 92 95 100 98 97 98 99 96 95 97 92 91 89 77 75 74 83 70 64 60 58 53 56 71 81 78 68 63 53 45 37 27 22 20 17 17 16 16 17 18 19 21 24 27 30 39 42 37 29
65 71 76 98 100 100 99 94 98 96 92 97 93 89 96 92 95 87 96 96 92 87 84 84 86 75 73 81 88 86 78 73 63 52 44 30 26 26 20 19 17 19 21 21 20 22 25 28 35 40 41 36 30 26
43 68 81 100 100 99 97 98 96 93 97 92 92 94 95 99 99 96 95 90 90 86 84 86 86 92 88 94 90 80 78 74 65 54 38 29 30 24 21 20 22 24 23 22 23 27 28 32 36 40 37 32 28 21
35 88 90 87 89 92 98 100 96 98 97 99 99 98 100 97 95 94 90 84 86 86 85 86 86 86 93 87 82 78 76 72 64 51 36 36 30 24 21 22 25 24 23 25 27 29 32 35 38 40 36 32 25 19
83 95 93 97 99 98 100 99 99 98 97 96 98 98 100 97 96 90 82 82 81 73 74 77 76 86 84 79 78 77 76 72 65 50 43 42 31 24 24 27 26 25 26 27 27 30 32 37 40 40 37 29 21 21
100 100 99 90 87 97 100 99 98 94 90 97 98 96 93 99 98 92 85 76 71 76 77 77 79 77 79 82 77 74 74 73 69 52 49 39 28 27 29 29 26 25 28 28 29 35 36 39 41 37 30 21 23 29
99 99 94 94 93 100 98 93 98 97 98 98 98 97 97 97 96 89 77 76 81 88 86 79 76 74 73 74 75 74 71 74 62 53 46 35 30 32 32 25 23 24 28 30 33 35 36 40 36 28 21 23 32 40
100 92 85 97 100 100 99 100 98 99 96 98 97 95 94 98 97 85 78 80 88 90 81 71 68 65 66 69 70 68 69 68 58 52 46 35 36 34 26 23 23 25 27 30 32 34 33 30 22 18 24 32 37 46
100 100 97 98 98 98 97 100 98 99 99 97 96 97 99 97 90 79 68 71 80 83 79 73 64 62 62 60 65 66 68 62 57 58 44 41 38 30 26 24 25 27 27 30 30 31 27 17 15 21 28 40 53 65
96 94 94 98 98 97 98 100 100 100 99 96 97 98 100 94 94 83 67 70 74 78 74 65 59 59 60 61 65 71 74 72 69 58 46 44 36 29 27 27 26 27 31 33 31 25 16 12 14 20 24 43 64 72
95 98 99 98 99 92 98 99 98 97 95 96 98 98 98 98 87 78 71 65 64 72 69 63 63 61 60 62 68 72 74 73 58 49 46 39 32 28 28 27 25 23 27 29 24 16 9 11 20 27 30 32 31 31
100 100 100 98 98 98 98 93 92 96 95 97 98 99 99 97 88 83 80 73 68 77 76 71 66 61 60 60 64 66 63 59 53 48 42 36 30 31 28 26 25 26 26 24 16 8 9 14 23 34 44 44 40 35
99 98 95 91 87 90 91 96 92 96 96 99 100 99 100 92 88 89 91 85 75 77 77 74 66 64 62 65 67 68 66 54 50 49 40 34 30 27 26 26 27 26 25 17 8 8 12 13 17 25 33 35 38 22
98 95 94 80 78 86 98 97 97 100 100 98 100 100 98 93 83 84 98 91 80 77 80 77 72 72 68 66 70 69 56 51 46 40 37 32 28 27 24 22 24 23 20 12 8 14 13 12 14 19 29 34 24 22
95 93 84 85 82 91 100 99 100 99 99 100 100 99 92 83 75 93 97 91 89 90 86 82 76 74 76 74 73 67 54 46 42 40 36 32 30 26 23 23 23 20 14 8 21 28 25 17 14 20 28 26 22 25
80 98 98 96 100 100 100 99 99 100 100 100 96 89 83 80 89 94 93 98 96 95 97 91 82 81 80 78 73 60 49 44 43 39 36 32 28 24 25 24 23 15 8 18 32 45 56 52 32 23 24 25 24 30
89 99 100 100 100 100 100 100 100 100 100 98 90 87 86 85 86 88 92 93 97 100 100 95 91 84 78 75 66 51 45 43 41 39 35 32 28 27 25 25 18 8 13 34 43 61 75 82 84 67 42 27 23 31
100 100 100 100 100 100 100 100 100 100 100 92 78 75 74 77 82 85 86 95 100 100 100 88 80 78 75 62 51 47 45 44 41 37 34 30 28 26 23 21 10 8 25 37 54 58 62 73 85 93 91 81 59 30
100 100 100 100 100 100 100 100 100 99 96 88 81 77 81 82 82 89 98 100 100 97 77 76 75 67 58 53 49 48 46 46 41 36 33 29 30 25 23 13 8 19 32 45 49 56 61 62 66 69 72 84 86 68
100 100 100 100 100 100 100 100 100 95 90 86 86 85 87 96 100 100 100 100 88 71 66 63 60 59 57 54 52 51 49 43 38 36 32 32 28 24 16 8 18 34 44 50 58 67 73 77 78 68 57 61 69 80
100 100 100 100 100 100 100 100 98 95 94 88 87 91 100 100 100 99 92 81 70 64 62 64 65 61 58 56 54 50 44 40 40 37 36 30 26 17 9 18 34 44 54 62 73 80 80 82 82 79 78 60 59 65
Wind_Speed
39 33 27 73 77 76 70 63 49 54 48 44 41 35 34 32 41 35 32 30 28 25 21 17 12 9 8 8 11 13 15 19 20 22 20 16 8 2 7 12 15 17 20 22 24 24 23 26 27 27 27 27 27 28
39 18 58 78 73 67 49 45 49 49 46 42 43 34 30 34 40 35 33 31 27 24 21 17 13 10 7 5 5 7 10 12 15 16 17 16 18 15 8 4 8 10 12 18 20 22 24 24 25 28 29 30 31 33
32 21 70 76 71 48 42 51 50 46 44 39 33 35 28 41 40 35 33 30 28 25 21 17 13 10 7 5 4 3 5 7 8 9 11 12 14 12 13 12 13 13 14 14 12 13 17 20 23 26 28 30 34 36
22 43 74 76 69 46 47 47 45 46 40 35 34 33 32 41 40 35 32 28 26 24 20 16 12 10 8 6 5 3 2 2 5 5 8 9 9 9 9 9 11 13 15 16 17 19 22 24 25 27 28 29 32 35
18 59 75 72 53 47 56 50 42 40 41 32 35 30 34 39 39 35 32 30 27 24 20 18 16 11 8 6 4 3 2 1 2 5 7 8 9 10 10 11 11 14 15 18 19 22 25 26 26 25 24 24 25 26
27 72 74 63 56 59 52 42 41 44 41 31 32 31 33 47 40 36 33 30 26 22 16 16 15 11 8 5 4 3 4 4 3 6 8 9 10 12 13 14 16 17 19 21 22 23 26 27 28 28 29 30 31 31
49 75 74 54 55 58 47 43 41 38 34 34 28 33 37 46 38 32 31 30 25 22 19 17 15 11 9 6 4 5 4 5 6 7 10 11 13 14 16 16 19 21 23 25 27 28 30 32 32 33 34 36 37 38
69 84 79 62 44 44 47 46 43 42 33 34 27 31 35 50 40 35 33 29 26 22 19 15 14 11 8 6 5 5 6 7 8 9 12 14 16 17 18 19 21 22 24 26 28 30 32 35 38 39 42 43 43 44
74 83 73 62 47 46 50 50 44 45 31 29 28 34 32 44 43 37 34 30 25 20 16 15 13 11 7 7 7 7 7 8 10 11 14 17 19 19 19 20 22 23 26 28 30 32 35 37 40 42 45 47 48 49
71 73 72 58 48 48 47 50 44 41 32 31 26 31 29 38 40 38 35 28 24 21 19 14 13 10 8 8 8 9 9 9 12 15 17 19 19 19 19 21 24 26 28 30 32 35 38 40 42 45 47 49 50 49
75 77 70 55 51 44 45 52 45 38 31 27 29 29 35 41 41 36 32 28 26 23 19 14 12 11 10 10 11 10 12 13 13 17 18 18 18 19 20 23 25 26 29 32 35 38 41 43 45 46 47 50 50 50
81 79 68 60 56 49 43 47 44 34 25 27 28 29 36 44 42 38 32 29 26 21 17 15 13 12 11 11 12 13 15 16 16 16 17 18 19 20 21 24 27 29 31 35 39 43 46 49 50 51 51 52 52 52
85 83 76 60 51 51 47 50 48 37 26 28 32 31 38 42 41 34 33 31 25 19 16 15 14 14 13 13 14 16 17 17 17 17 18 19 20 21 24 27 30 31 35 39 44 48 51 53 54 54 54 54 54 55
86 84 79 58 50 46 50 54 41 32 32 31 33 32 37 35 38 32 30 24 24 24 20 18 18 18 17 17 16 17 18 18 17 19 20 20 22 25 27 31 33 36 40 45 49 53 56 56 55 55 56 57 58 61
88 84 72 60 55 46 47 45 39 35 34 32 35 33 32 31 29 26 28 26 23 20 21 22 21 20 20 19 18 19 19 19 19 21 21 23 26 28 31 34 38 43 47 52 56 59 60 58 57 56 58 59 62 64
85 75 72 70 63 55 44 43 40 36 36 31 33 35 31 30 27 27 26 25 23 22 22 22 21 21 20 18 19 20 19 20 22 23 24 28 31 33 35 40 45 48 53 57 62 63 62 61 59 58 58 61 62 62
83 79 76 64 54 53 47 45 39 40 33 32 33 32 30 29 29 30 27 24 22 20 20 18 18 18 17 18 19 19 19 22 23 24 27 32 35 38 41 45 49 53 57 63 67 67 66 64 63 61 61 62 60 56
75 71 66 64 54 48 47 48 39 37 37 35 38 34 30 29 31 27 25 24 22 20 18 17 17 16 16 19 19 20 22 24 24 26 29 34 38 42 46 51 54 58 63 67 70 69 67 67 65 65 64 62 55 52
72 72 64 59 49 41 42 43 41 38 37 38 37 33 29 29 26 25 23 21 19 17 17 17 16 16 18 19 20 21 24 26 25 28 32 36 40 46 50 54 58 63 67 71 73 71 70 68 68 66 63 58 54 52
64 68 68 58 46 47 43 44 41 39 38 35 33 30 27 29 27 25 22 19 18 17 17 17 17 18 19 19 20 23 25 25 27 31 36 40 45 49 54 58 63 67 71 75 74 74 74 73 72 66 58 54 52 50
68 64 62 60 51 50 48 44 42 39 39 37 34 30 27 28 26 24 20 19 18 19 20 20 19 19 19 21 21 23 25 28 31 35 39 44 48 53 58 62 66 71 76 77 78 77 79 79 70 59 54 51 50 46
69 65 56 55 53 51 47 40 43 42 40 39 36 31 25 25 24 22 18 18 18 20 21 21 21 20 20 21 22 25 28 32 35 37 42 46 51 57 61 65 70 75 79 80 81 82 82 75 66 56 51 48 46 44
67 61 55 49 51 55 49 46 42 43 41 40 37 33 27 22 21 19 18 19 20 21 21 22 21 19 20 22 24 26 29 32 35 39 45 48 55 60 64 69 74 79 80 81 85 87 80 70 60 53 48 44 43 40
62 61 56 50 53 54 47 46 44 41 38 34 30 26 29 27 25 21 19 24 29 24 21 21 19 20 21 22 23 26 30 34 37 44 47 52 58 63 68 73 78 81 82 86 88 81 72 63 57 50 44 39 37 37
60 59 55 48 51 52 49 45 43 39 34 31 24 23 28 27 26 23 23 28 32 30 23 21 20 21 23 24 25 30 34 37 43 48 51 56 60 65 70 76 79 81 86 88 83 71 61 57 51 43 37 32 32 22
60 57 53 49 49 49 45 40 36 33 35 32 25 21 23 24 25 26 27 29 32 32 27 23 22 25 28 27 29 33 37 42 46 50 55 60 64 68 72 76 79 82 87 85 65 54 52 51 46 38 29 24 19 14
56 52 49 48 46 44 39 34 31 30 26 20 20 27 28 27 30 29 28 30 32 31 28 25 26 30 31 32 33 37 41 46 50 54 58 62 66 71 75 79 80 83 84 62 46 46 47 45 40 30 22 20 17 9
58 50 46 42 41 40 35 29 23 20 18 21 23 25 29 31 31 30 32 31 31 29 28 28 30 32 32 33 36 40 44 48 52 56 60 65 70 74 77 78 80 83 65 45 44 45 45 42 38 32 26 22 18 7
55 51 45 42 36 36 34 28 20 17 14 18 23 25 27 29 32 34 32 30 30 31 30 29 32 34 35 36 39 43 47 51 54 58 62 67 72 76 76 77 81 68 47 43 47 49 46 40 35 31 27 23 18 10
49 46 42 37 36 35 32 25 20 17 17 21 26 30 31 33 33 32 30 29 29 29 29 31 33 34 35 38 41 45 49 52 56 60 64 68 72 74 74 77 73 50 40 44 48 46 40 36 33 29 26 23 20 14
49 45 39 37 37 35 27 20 25 24 23 28 30 32 32 32 32 29 28 27 26 24 28 31 32 34 38 41 44 47 51 55 58 62 66 70 71 72 74 72 52 38 41 46 40 34 32 32 32 31 27 23 20 17
45 42 40 36 27 25 25 24 24 24 26 28 30 31 31 29 27 27 27 25 24 27 31 33 36 38 41 44 46 50 53 56 60 65 69 69 69 70 72 53 36 38 41 36 27 30 33 33 33 33 32 27 21 18
44 38 28 25 24 25 26 26 25 29 30 30 31 30 30 29 27 25 25 26 29 32 34 36 38 41 43 46 49 51 54 59 64 67 67 67 67 69 52 34 35 38 32 26 30 32 32 32 32 30 29 31 26 20
Wind_Direction
326 323 205 180 183 184 175 164 167 160 158 169 186 179 177 173 186 176 176 172 170 171 169 168 165 159 132 105 84 78 70 67 65 61 56 57 49 15 275 254 258 260 267 272 277 279 283 280 281 282 285 284 282 279
328 296 185 180 179 178 163 166 158 148 157 174 185 177 182 176 183 177 176 174 172 172 169 173 174 170 166 144 105 81 78 75 71 66 61 57 55 51 40 341 329 291 284 282 283 290 290 286 281 283 284 282 281 281
322 218 186 179 176 165 164 153 149 153 169 181 183 183 173 180 180 177 177 175 174 174 172 178 180 180 181 180 165 124 83 69 62 61 57 57 50 36 31 26 14 6 353 338 319 296 293 294 289 283 283 282 282 281
302 192 185 179 176 174 168 156 157 168 169 173 176 187 176 183 180 178 180 180 179 176 174 180 185 187 191 198 202 195 124 61 34 26 29 24 31 23 5 357 351 343 335 330 322 316 310 303 297 294 292 289 284 282
266 190 183 176 174 169 167 167 172 174 177 181 184 179 171 187 179 181 182 185 188 184 186 189 193 197 200 211 211 224 253 325 357 350 356 1 359 346 336 340 333 326 319 312 311 305 301 298 298 300 303 303 304 299
211 184 180 175 174 165 164 166 177 176 174 175 190 192 178 184 177 185 189 190 191 189 187 196 202 200 199 204 238 257 286 299 326 331 333 335 328 336 327 325 319 317 315 310 302 300 298 296 297 298 297 298 297 296
196 180 170 164 163 167 166 171 169 167 173 186 191 180 182 170 177 182 184 184 189 188 188 191 195 201 209 227 254 278 291 301 310 319 322 324 327 319 316 316 314 315 313 306 304 304 302 299 296 296 295 293 294 294
186 181 175 175 172 167 173 175 177 177 168 175 183 188 185 177 174 180 180 181 176 178 188 198 201 202 218 230 251 268 280 301 310 319 318 318 314 311 312 315 313 314 310 307 309 307 306 304 303 302 301 300 298 296
191 183 184 181 176 171 176 178 185 184 174 174 182 179 182 183 175 182 181 180 178 181 193 201 205 206 220 241 255 271 287 306 309 306 307 310 309 309 312 312 311 309 306 307 307 308 306 304 303 301 298 298 298 297
191 184 183 181 180 181 179 182 186 191 185 185 187 186 185 192 184 183 185 184 183 186 194 203 215 208 229 249 262 278 292 299 302 304 307 309 308 309 311 310 308 310 310 310 311 310 307 306 304 301 301 301 298 296
181 180 182 183 177 181 184 192 190 185 182 189 197 199 195 191 186 184 188 195 196 196 206 214 223 225 237 252 269 281 291 295 300 298 306 309 301 303 308 310 310 311 312 314 314 312 311 310 309 308 305 303 301 300
181 182 185 187 186 190 189 195 188 185 187 194 198 199 192 186 189 189 193 201 205 206 213 220 232 241 248 262 276 288 292 296 297 300 299 296 299 306 312 310 310 313 315 315 316 315 314 314 314 312 309 306 305 304
179 185 186 184 184 189 191 186 192 192 193 193 192 195 197 196 200 205 209 208 209 211 219 228 236 247 254 265 276 286 290 293 297 296 294 299 306 312 311 311 313 315 317 319 319 317 317 317 316 314 311 310 311 311
178 186 188 182 188 184 186 189 191 194 196 193 195 199 198 206 205 210 207 204 203 212 223 236 243 249 261 269 278 288 289 290 293 293 297 302 308 312 310 315 318 320 321 322 321 320 322 321 318 315 314 315 317 318
183 189 189 185 185 188 189 182 190 198 197 183 178 184 190 190 195 199 203 210 213 221 232 238 245 254 260 268 281 285 287 292 294 294 296 302 310 311 315 319 321 323 323 324 324 324 323 321 319 318 319 321 323 327
180 183 189 193 198 195 189 187 192 197 186 181 187 190 188 191 201 203 204 209 216 225 238 245 252 257 263 275 279 280 287 292 293 296 301 307 312 313 315 319 322 323 324 325 325 325 323 321 320 321 322 324 326 327
180 185 188 189 187 190 189 194 195 190 184 185 192 184 183 194 195 202 205 211 219 229 241 252 263 265 270 274 277 282 286 289 291 297 302 309 312 313 315 319 321 322 324 326 325 325 324 322 321 324 327 327 325 322
176 183 181 183 180 176 184 189 194 174 173 181 186 179 180 186 193 199 209 220 231 241 251 264 271 273 275 275 281 288 290 289 291 296 304 308 311 313 316 319 321 323 325 325 324 325 323 322 324 326 328 325 319 317
168 172 174 177 178 180 182 188 189 179 180 189 189 189 193 191 199 214 227 239 248 254 263 272 278 281 279 281 284 291 292 289 292 300 306 309 312 316 319 321 322 323 324 325 325 324 324 324 325 327 324 318 314 315
172 181 187 187 185 186 190 186 183 177 180 181 184 186 193 192 204 219 228 241 249 255 266 279 285 284 283 287 291 291 288 291 296 304 308 310 314 318 320 321 322 323 325 325 325 325 324 325 326 324 318 314 311 314
176 183 188 190 186 185 181 180 177 177 186 185 183 184 188 195 210 228 241 247 255 260 270 279 283 285 288 288 289 291 294 295 299 306 308 313 317 319 320 321 322 324 325 326 325 325 325 327 326 320 316 314 312 312
181 183 185 185 185 185 183 184 183 187 191 188 187 187 186 196 210 227 244 250 255 266 276 284 287 285 287 292 297 299 298 297 299 304 309 314 317 319 320 321 325 326 326 326 325 326 328 326 323 320 316 312 309 310
181 180 180 184 189 188 189 190 190 191 194 196 199 198 197 207 218 228 241 256 263 268 280 283 281 282 288 293 296 300 300 301 304 307 312 315 317 319 322 324 326 326 327 326 326 329 328 324 321 318 314 313 312 315
183 185 186 186 186 188 190 194 194 193 196 201 203 200 201 210 222 229 246 263 272 275 277 280 279 282 288 294 299 303 305 307 309 312 313 316 319 322 325 326 326 327 327 326 330 331 328 325 322 317 314 314 315 318
182 186 186 186 187 189 196 196 198 199 204 202 188 190 203 217 227 238 254 266 274 281 283 280 280 286 292 298 302 306 310 311 312 312 314 318 321 324 327 328 327 327 326 330 334 331 329 328 327 324 319 317 321 323
185 184 188 186 189 194 199 205 208 210 212 213 194 200 212 221 231 243 253 264 275 281 284 283 287 292 296 302 307 309 310 312 312 312 316 320 323 326 327 326 325 326 326 333 334 335 337 335 332 327 323 322 329 324
186 188 194 195 197 199 205 210 212 216 226 216 198 205 220 232 240 244 253 264 270 274 278 281 285 289 296 302 303 305 309 312 313 315 319 320 324 326 326 326 328 327 334 335 335 343 347 347 346 343 338 334 330 313
184 188 194 195 198 203 207 205 205 204 184 188 202 214 226 236 246 250 255 258 263 269 271 275 284 291 297 297 300 305 309 312 314 317 319 322 326 327 326 327 326 333 335 331 335 339 340 345 350 346 340 333 324 295
191 192 193 195 198 202 207 212 207 188 179 203 215 223 232 238 243 248 254 258 262 263 270 278 286 291 294 297 300 306 310 312 315 318 322 325 326 326 327 327 332 335 331 331 333 333 330 330 333 342 341 333 321 283
198 201 203 207 211 218 225 226 221 212 212 213 221 230 238 244 249 254 259 261 263 266 276 284 288 292 295 297 302 306 310 313 317 320 323 324 324 325 325 329 334 330 328 331 330 330 333 333 327 323 323 328 327 297
209 210 213 218 223 225 222 228 211 207 214 221 230 238 245 251 255 256 258 261 265 278 282 284 290 294 297 301 304 309 312 316 318 321 323 323 324 325 326 332 330 326 330 330 331 337 343 347 349 347 333 314 306 306
209 214 220 220 221 222 220 220 213 213 221 228 235 240 244 248 252 255 257 262 272 279 286 290 292 295 299 303 308 311 313 315 318 320 323 323 324 325 330 330 327 329 328 328 335 341 342 344 347 351 350 342 322 291
215 218 217 210 205 199 200 205 209 215 222 227 231 236 239 242 246 255 262 269 278 283 286 289 292 297 301 305 308 311 313 316 319 320 321 324 325 329 328 324 325 326 328 330 338 340 342 344 345 344 344 353 347 331